Location: Newark
(45.9167°N, 5.5000°E)
Time: 11:01:46
(UTC+00:00)

N. Korean satellite - Pass Details

Date: 02 February 2020
Orbit: 456 x 505 km, 97.2° (Epoch: 19 February)

Event Time Altitude Azimuth Distance (km) Brightness Sun altitude
Rises 17:36:53 0° 209° (SSW) 2,465 10.8 -9.5°
Reaches altitude 10° 17:39:41 10° 235° (SW) 1,603 10.5 -10.0°
Maximum altitude 17:41:36 14° 269° (W) 1,372 10.2 -10.3°
Drops below altitude 10° 17:43:32 10° 303° (WNW) 1,621 9.9 -10.6°
Sets 17:46:24 0° 329° (NNW) 2,514 10.4 -11.1°
